Location: Antin
(43.3330°N, 0.2804°E)
Time: 22:19:45
(UTC+00:00)

CZ-4 R/B - Pass Details

Date: 16 October 2021
Orbit: 531 x 595 km, 97.8° (Epoch: 04 December)

Event Time Altitude Azimuth Distance (km) Brightness Sun altitude
Rises 19:37:33 0° 199° (SSW) 2,696 4.9 -26.7°
Reaches altitude 10° 19:40:01 10° 215° (SW) 1,820 4.2 -27.2°
Maximum altitude 19:43:06 22° 266° (W) 1,254 3.8 -27.7°
Drops below altitude 10° 19:46:14 10° 318° (NW) 1,863 4.7 -28.3°
Sets 19:48:48 0° 334° (NNW) 2,778 5.5 -28.7°
